Showing default

DRAGON ENDEAVOUR 6, 65077

Orbit data source: Space-Track

DRAGON ENDEAVOUR 6, 65077 is a payload satellite owned by SpaceX (US) in LEO that was launched on Fri, 01 Aug 2025 UTC via an FALCON 9 launch vehicle from the Air Force Eastern Test Range (AFETR). Payload-class satellites include a variety of spacecraft equipped with specific instruments for various scientific and technological missions. These include communications satellites like Starlink; space stations such as the ISS; scientific satellites like the Hubble; Earth observation satellites from companies like Planet Labs, Umbra, and HawkEye 360; GPS; miniature CubeSats for education and research; and military/defense satellites.

Loading next visibility...
Identifier
65077, 2025-166A
Orbit
LEO
Country
Flag of USUS
Related business
Manufacturer
SpaceX
Mission
Operational Commercial Spaceship
Bus & Motor
DRAGON CM, Unknown motor
Mass
~13,055 kg wet, ~9,500 kg dry
Launch date (UTC)
2025-08-01 (4 months ago)
Launch vehicle
FALCON 9
Launch site
Air Force Eastern Test Range (AFETR)
Object type
Payload
Rocket body
Debris
Shape & HBR
Trunc Cone + Cyl + 4 Fin, 14.5 m
Radar Cross Section
21.677 m²

Expand to show TLE details & history
Last TLE update: 11 hours ago

TLE from 11 hours ago
0 DRAGON ENDEAVOUR 6
1 65077U 25166A   25342.54239145  .00012445  00000-0  23028-3 0  9998
2 65077  51.6307 163.2617 0003394 220.7658 139.3077 15.49420853  2142
Epoch: 2025-12-08T13:01Z
TLE epoch observation values (Epoch: 2025-12-08T13:01:02.621Z)
Latitude
-0.00001°
Longitude
-109.53916°
Altitude
420.909 km
Speed
7.659 km/s
True Right ascension
10h 53m 02s
True Declination
0° 00' 00"
Sunlit
Object was in daylight at epoch
Visualization orbit readout
Latitude
Unknown
Longitude
Unknown
Altitude
Unknown
Speed
Unknown
Apparent Right ascension
Unknown
Apparent Declination
Unknown
Sunlit
N/A
Visualization observer readout
Local Sidereal Time
21:51:13
Azimuth
Unknown
Elevation
Unknown
Doppler factor
Unknown
Orbital elements
Apogee altitude
421.235 km
Perigee altitude
416.622 km
Semi-major axis
6,797.066 km
Eccentricity
0.00034
Inclination
51.6307°
RAAN
163.2617°
Arg. of periapsis
220.7658°
True anomaly
139.33305°
Mean anomaly
139.3077°
Eccentric anomaly
139.32038°
Mean motion
3.87312 °/min
Orbital period
92.95 mins
BSTAR
0.00023028
Loading maneuver chart data...
Computing Atmospheric mass density...
Loading historical data...
Loading historical data...
Loading historical data...
Loading historical data...
Loading historical data...
Loading historical data...
Loading historical data...
Other satellites on launch #166 in the year 2025 (2025-08-01 UTC)

Documentation

Showing up to 5 results
|